DLH9K OMDB-YPPH

Flight info

Callsign DLH9K
Flight time N/A
Altitude 35000
Route ANVIX L223 TARDI N629 GIDAN P570 KITAL L894 GOLEM/N0498F370 L894 BIBGO DCT LAVOX DCT KADAP DCT 0500S08730E/N0491F390 DCT BEBIM DCT 15S100E 18S105E DCT WONSA DCT CAR B469 TOPIR/N0476F400 L514 AVPAL Q38 JULIM
Aircraft A388/J-SADE2E3FGHIJ3J4J5M1RWXY/LB1D1

Departure

Time 2026-04-21 12:29
Airport Dubai International Airport (OMDB)

Arrival

Time N/A
Airport Perth International Airport (YPPH)
Time Latitude Longitude Altitude Speed Heading
2026-04-21 11:59 25.24933 55.36232 28 ft 0 kts 211°
2026-04-21 12:15 25.24939 55.36237 29 ft 2 kts 211°
2026-04-21 12:16 25.24947 55.36242 30 ft 2 kts 211°
2026-04-21 12:16 25.24962 55.36252 31 ft 2 kts 211°
2026-04-21 12:16 25.24979 55.36260 30 ft 3 kts 196°
2026-04-21 12:17 25.24999 55.36258 31 ft 3 kts 169°
2026-04-21 12:17 25.25016 55.36248 31 ft 3 kts 144°
2026-04-21 12:17 25.25026 55.36234 29 ft 0 kts 119°
2026-04-21 12:18 25.25025 55.36235 29 ft 0 kts 119°
2026-04-21 12:18 25.25024 55.36238 29 ft 0 kts 119°
2026-04-21 12:19 25.25023 55.36239 29 ft 1 kts 119°
2026-04-21 12:19 25.25007 55.36270 31 ft 9 kts 121°
2026-04-21 12:19 25.24956 55.36357 29 ft 18 kts 122°
2026-04-21 12:19 25.24872 55.36505 28 ft 27 kts 122°
2026-04-21 12:20 25.24786 55.36713 31 ft 30 kts 103°
2026-04-21 12:20 25.24714 55.36918 33 ft 28 kts 121°
2026-04-21 12:20 25.24616 55.37095 35 ft 26 kts 122°
2026-04-21 12:20 25.24522 55.37260 37 ft 25 kts 122°
2026-04-21 12:21 25.24433 55.37419 40 ft 24 kts 121°
2026-04-21 12:21 25.24347 55.37569 42 ft 22 kts 124°
2026-04-21 12:21 25.24272 55.37712 44 ft 15 kts 118°
2026-04-21 12:21 25.24242 55.37772 45 ft 10 kts 121°
2026-04-21 12:22 25.24202 55.37840 46 ft 11 kts 120°
2026-04-21 12:22 25.24159 55.37922 47 ft 13 kts 120°
2026-04-21 12:22 25.24103 55.38019 46 ft 18 kts 123°
2026-04-21 12:22 25.24018 55.38166 47 ft 23 kts 122°
2026-04-21 12:23 25.23937 55.38307 52 ft 18 kts 122°
2026-04-21 12:23 25.23891 55.38393 48 ft 5 kts 120°
2026-04-21 12:23 25.23890 55.38395 48 ft 1 kts 120°
2026-04-21 12:24 25.23889 55.38396 48 ft 2 kts 120°
2026-04-21 12:24 25.23872 55.38429 49 ft 8 kts 119°
2026-04-21 12:24 25.23860 55.38462 51 ft 3 kts 99°
2026-04-21 12:24 25.23864 55.38508 53 ft 10 kts 71°
2026-04-21 12:25 25.23875 55.38604 52 ft 16 kts 108°
2026-04-21 12:25 25.23812 55.38727 53 ft 21 kts 121°
2026-04-21 12:25 25.23724 55.38883 52 ft 26 kts 122°
2026-04-21 12:25 25.23621 55.39072 54 ft 31 kts 115°
2026-04-21 12:26 25.23536 55.39217 55 ft 12 kts 131°
2026-04-21 12:26 25.23494 55.39286 59 ft 7 kts 103°
2026-04-21 12:26 25.23494 55.39323 62 ft 7 kts 74°
2026-04-21 12:26 25.23506 55.39351 58 ft 7 kts 51°
2026-04-21 12:27 25.23521 55.39379 48 ft 14 kts 60°
2026-04-21 12:27 25.23604 55.39424 44 ft 10 kts 349°
2026-04-21 12:27 25.23612 55.39422 45 ft 2 kts 342°
2026-04-21 12:27 25.23632 55.39412 47 ft 4 kts 324°
2026-04-21 12:28 25.23656 55.39380 46 ft 7 kts 300°
2026-04-21 12:28 25.23680 55.39333 46 ft 19 kts 299°
2026-04-21 12:28 25.23872 55.38980 37 ft 86 kts 302°
2026-04-21 12:28 25.24278 55.38254 35 ft 133 kts 301°
2026-04-21 12:29 25.24823 55.37281 22 ft 160 kts 299°
2026-04-21 12:29 25.25375 55.36189 256 ft 162 kts 302°
2026-04-21 12:29 25.25926 55.35117 568 ft 161 kts 303°
2026-04-21 12:29 25.26551 55.34040 706 ft 171 kts 307°
2026-04-21 12:30 25.27249 55.32961 952 ft 177 kts 309°
2026-04-21 12:30 25.28027 55.31829 1046 ft 191 kts 310°
2026-04-21 12:30 25.28814 55.30627 1292 ft 195 kts 303°
2026-04-21 12:30 25.29210 55.29124 1560 ft 218 kts 270°
2026-04-21 12:31 25.28778 55.27465 1897 ft 236 kts 246°
2026-04-21 12:31 25.28033 55.25793 2272 ft 248 kts 246°
2026-04-21 12:31 25.27285 55.24082 2908 ft 247 kts 246°
2026-04-21 12:31 25.26545 55.22370 3514 ft 247 kts 246°
2026-04-21 12:32 25.25820 55.20676 4238 ft 242 kts 245°
2026-04-21 12:32 25.25103 55.18992 4858 ft 242 kts 244°
2026-04-21 12:32 25.24112 55.17478 5363 ft 249 kts 218°
2026-04-21 12:32 25.22543 55.16681 5951 ft 253 kts 189°
2026-04-21 12:33 25.20780 55.16665 6561 ft 255 kts 178°
2026-04-21 12:33 25.19046 55.17166 7064 ft 264 kts 152°
2026-04-21 12:33 25.17696 55.18506 7580 ft 272 kts 124°
2026-04-21 12:33 25.16772 55.20403 7965 ft 284 kts 118°
2026-04-21 12:34 25.15866 55.22417 8217 ft 299 kts 118°
2026-04-21 12:34 25.14924 55.24477 8750 ft 303 kts 119°
2026-04-21 12:34 25.13950 55.26554 9308 ft 306 kts 120°
2026-04-21 12:34 25.12950 55.28652 9805 ft 311 kts 120°
2026-04-21 12:35 25.11939 55.30760 10397 ft 310 kts 120°
2026-04-21 12:35 25.10924 55.32869 10967 ft 312 kts 120°
2026-04-21 12:35 25.09995 55.35042 11521 ft 314 kts 116°
2026-04-21 12:35 25.09097 55.37243 12097 ft 316 kts 117°
2026-04-21 12:36 25.08187 55.39455 12657 ft 317 kts 117°
2026-04-21 12:36 25.07271 55.41675 13199 ft 319 kts 117°
2026-04-21 12:36 25.06357 55.43944 13473 ft 331 kts 116°
2026-04-21 12:36 25.05440 55.46333 13624 ft 346 kts 115°
2026-04-21 12:37 25.04491 55.48833 13760 ft 360 kts 115°
2026-04-21 12:37 25.03503 55.51425 13940 ft 372 kts 115°
2026-04-21 12:37 25.02493 55.54061 14410 ft 374 kts 115°
2026-04-21 12:37 25.01340 55.56634 14844 ft 375 kts 123°
2026-04-21 12:38 24.99985 55.59097 15302 ft 377 kts 123°
2026-04-21 12:38 24.98632 55.61586 15752 ft 380 kts 123°
2026-04-21 12:38 24.97277 55.64096 16194 ft 382 kts 123°
2026-04-21 12:38 24.95912 55.66626 16628 ft 385 kts 123°
2026-04-21 12:39 24.94539 55.69170 17075 ft 388 kts 124°
2026-04-21 12:39 24.93019 55.71625 17498 ft 388 kts 129°
2026-04-21 12:39 24.91429 55.73995 17898 ft 391 kts 129°
2026-04-21 12:39 24.89818 55.76420 18278 ft 394 kts 129°
2026-04-21 12:40 24.88195 55.78871 18633 ft 397 kts 129°
2026-04-21 12:40 24.86565 55.81331 19009 ft 399 kts 129°
2026-04-21 12:40 24.84923 55.83809 19300 ft 403 kts 129°
2026-04-21 12:40 24.83260 55.86309 19620 ft 406 kts 129°
2026-04-21 12:41 24.81573 55.88809 19972 ft 408 kts 130°
2026-04-21 12:41 24.79868 55.91318 20321 ft 411 kts 130°
2026-04-21 12:41 24.78092 55.93795 20633 ft 412 kts 135°
2026-04-21 12:41 24.76056 55.96007 20973 ft 412 kts 141°
2026-04-21 12:42 24.73941 55.98150 21299 ft 415 kts 141°
2026-04-21 12:42 24.71824 56.00322 21631 ft 418 kts 140°
2026-04-21 12:42 24.69961 56.02240 21933 ft 420 kts 140°
2026-04-21 12:42 24.67823 56.04442 22232 ft 423 kts 140°